When you browse on this site, cookies collect data to enhance your experience and personalize the content and advertising you see.
Visit our Privacy Policy to learn more. By continuing to use the site, you agree to this use of cookies and data.

Hourly Weather Tel Aviv

Today, 15 August, Saturday

Time Temperature Precipitation Wind Pressure Humidity
00:00 +27°C° 0 mm 1 mps 753 mmHg 81%
01:00 +27°C° 0 mm 2 mps 753 mmHg 82%
02:00 +27°C° 0 mm 2 mps 753 mmHg 82%
03:00 +27°C° 0 mm 2 mps 753 mmHg 82%
04:00 +27°C° 0 mm 3 mps 753 mmHg 82%
05:00 +27°C° 0 mm 3 mps 753 mmHg 83%
06:00 +28°C° 0 mm 3 mps 753 mmHg 78%
07:00 +29°C° 0 mm 3 mps 753 mmHg 73%
08:00 +30°C° 0 mm 3 mps 753 mmHg 67%
09:00 +32°C° 0 mm 4 mps 753 mmHg 63%
10:00 +33°C° 0 mm 5 mps 753 mmHg 60%
11:00 +34°C° 0 mm 5 mps 753 mmHg 57%
12:00 +34°C° 0 mm 5 mps 753 mmHg 57%
13:00 +34°C° 0 mm 5 mps 753 mmHg 57%
14:00 +34°C° 0 mm 5 mps 752 mmHg 58%
15:00 +34°C° 0 mm 5 mps 752 mmHg 60%
16:00 +33°C° 0 mm 5 mps 752 mmHg 63%
17:00 +33°C° 0 mm 4 mps 752 mmHg 66%
18:00 +30°C° 0 mm 3 mps 752 mmHg 71%
19:00 +29°C° 0 mm 2 mps 753 mmHg 77%
20:00 +28°C° 0 mm 1 mps 753 mmHg 82%
21:00 +28°C° 0 mm 1 mps 753 mmHg 82%
22:00 +27°C° 0 mm 1 mps 753 mmHg 82%
23:00 +27°C° 0 mm 2 mps 753 mmHg 83%

Tomorrow, 16 August, Sunday

Time Temperature Precipitation Wind Pressure Humidity
00:00 +27°C° 0 mm 2 mps 753 mmHg 83%
01:00 +26°C° 0 mm 2 mps 752 mmHg 84%
02:00 +26°C° 0 mm 2 mps 752 mmHg 85%
03:00 +26°C° 0 mm 2 mps 752 mmHg 84%
04:00 +26°C° 0 mm 2 mps 752 mmHg 84%
05:00 +26°C° 0 mm 2 mps 753 mmHg 84%
06:00 +27°C° 0 mm 3 mps 753 mmHg 79%
07:00 +28°C° 0 mm 3 mps 753 mmHg 74%
08:00 +30°C° 0 mm 3 mps 753 mmHg 69%
09:00 +32°C° 0 mm 4 mps 753 mmHg 63%
10:00 +33°C° 0 mm 4 mps 753 mmHg 56%
11:00 +35°C° 0 mm 5 mps 754 mmHg 50%
12:00 +35°C° 0 mm 5 mps 753 mmHg 51%
13:00 +35°C° 0 mm 5 mps 753 mmHg 51%
14:00 +35°C° 0 mm 5 mps 753 mmHg 52%
15:00 +34°C° 0 mm 5 mps 753 mmHg 53%
16:00 +34°C° 0 mm 4 mps 753 mmHg 54%
17:00 +33°C° 0 mm 4 mps 753 mmHg 55%
18:00 +31°C° 0 mm 3 mps 753 mmHg 62%
19:00 +29°C° 0 mm 2 mps 753 mmHg 68%
20:00 +27°C° 0 mm 1 mps 754 mmHg 74%
21:00 +25°C° 0 mm 0 mps 753 mmHg 74%
22:00 +25°C° 0 mm 0 mps 753 mmHg 74%
23:00 +24°C° 0 mm 0 mps 753 mmHg 73%

Day after tomorrow, 17 August, Monday

Time Temperature Precipitation Wind Pressure Humidity
00:00 +24°C° 0 mm 0 mps 753 mmHg 73%
01:00 +26°C° 0 mm 1 mps 753 mmHg 72%
02:00 +26°C° 0 mm 1 mps 753 mmHg 72%
03:00 +26°C° 0 mm 2 mps 753 mmHg 73%
04:00 +26°C° 0 mm 2 mps 753 mmHg 74%
05:00 +26°C° 0 mm 2 mps 753 mmHg 75%
06:00 +27°C° 0 mm 2 mps 753 mmHg 71%
07:00 +28°C° 0 mm 3 mps 753 mmHg 67%
08:00 +30°C° 0 mm 3 mps 754 mmHg 62%
09:00 +31°C° 0 mm 3 mps 754 mmHg 58%
10:00 +33°C° 0 mm 4 mps 754 mmHg 53%
11:00 +35°C° 0 mm 4 mps 754 mmHg 48%
12:00 +35°C° 0 mm 5 mps 753 mmHg 49%
13:00 +35°C° 0 mm 5 mps 753 mmHg 49%
14:00 +35°C° 0 mm 5 mps 753 mmHg 50%
15:00 +34°C° 0 mm 4 mps 753 mmHg 52%
16:00 +33°C° 0 mm 4 mps 753 mmHg 54%
17:00 +33°C° 0 mm 3 mps 753 mmHg 57%
18:00 +30°C° 0 mm 2 mps 753 mmHg 63%
19:00 +28°C° 0 mm 2 mps 753 mmHg 69%
20:00 +27°C° 0 mm 1 mps 754 mmHg 75%
21:00 +26°C° 0 mm 1 mps 754 mmHg 76%
22:00 +24°C° 0 mm 0 mps 754 mmHg 76%
23:00 +24°C° 0 mm 0 mps 753 mmHg 77%

18 August, Tuesday

Time Temperature Precipitation Wind Pressure Humidity
00:00 +26°C° 0 mm 1 mps 753 mmHg 77%
01:00 +26°C° 0 mm 2 mps 753 mmHg 78%
02:00 +26°C° 0 mm 3 mps 753 mmHg 78%
03:00 +26°C° 0 mm 3 mps 753 mmHg 79%
04:00 +25°C° 0 mm 3 mps 753 mmHg 80%
05:00 +25°C° 0 mm 3 mps 753 mmHg 81%
06:00 +26°C° 0 mm 3 mps 754 mmHg 77%
07:00 +28°C° 0 mm 3 mps 754 mmHg 73%
08:00 +29°C° 0 mm 4 mps 754 mmHg 69%
09:00 +30°C° 0 mm 4 mps 754 mmHg 64%
10:00 +32°C° 0 mm 4 mps 754 mmHg 58%
11:00 +34°C° 0 mm 4 mps 754 mmHg 53%
12:00 +34°C° 0 mm 5 mps 753 mmHg 54%
13:00 +34°C° 0 mm 5 mps 753 mmHg 54%
14:00 +34°C° 0 mm 5 mps 753 mmHg 54%
15:00 +33°C° 0 mm 4 mps 753 mmHg 56%
16:00 +32°C° 0 mm 4 mps 752 mmHg 58%
17:00 +32°C° 0 mm 4 mps 752 mmHg 60%
18:00 +30°C° 0 mm 3 mps 753 mmHg 65%
19:00 +28°C° 0 mm 2 mps 753 mmHg 71%
20:00 +27°C° 0 mm 1 mps 753 mmHg 77%
21:00 +26°C° 0 mm 1 mps 753 mmHg 77%
22:00 +26°C° 0 mm 1 mps 753 mmHg 78%
23:00 +26°C° 0 mm 1 mps 753 mmHg 78%

19 August, Wednesday

Time Temperature Precipitation Wind Pressure Humidity
00:00 +26°C° 0 mm 1 mps 753 mmHg 79%
01:00 +25°C° 0 mm 1 mps 753 mmHg 79%
02:00 +25°C° 0 mm 1 mps 753 mmHg 80%
03:00 +25°C° 0 mm 2 mps 753 mmHg 80%
04:00 +25°C° 0 mm 2 mps 753 mmHg 81%
05:00 +25°C° 0 mm 3 mps 753 mmHg 82%
06:00 +26°C° 0 mm 3 mps 753 mmHg 77%
07:00 +28°C° 0 mm 3 mps 753 mmHg 73%
08:00 +29°C° 0 mm 3 mps 754 mmHg 68%
09:00 +30°C° 0 mm 3 mps 754 mmHg 62%
10:00 +32°C° 0 mm 4 mps 754 mmHg 57%
11:00 +34°C° 0 mm 4 mps 753 mmHg 51%
12:00 +34°C° 0 mm 4 mps 753 mmHg 52%
13:00 +34°C° 0 mm 4 mps 753 mmHg 52%
14:00 +34°C° 0 mm 5 mps 752 mmHg 53%
15:00 +33°C° 0 mm 5 mps 752 mmHg 56%
16:00 +33°C° 0 mm 4 mps 752 mmHg 59%
17:00 +32°C° 0 mm 4 mps 752 mmHg 62%
18:00 +30°C° 0 mm 3 mps 752 mmHg 68%
19:00 +28°C° 0 mm 3 mps 753 mmHg 74%
20:00 +27°C° 0 mm 2 mps 753 mmHg 80%
21:00 +27°C° 0 mm 1 mps 753 mmHg 80%
22:00 +26°C° 0 mm 1 mps 753 mmHg 80%
23:00 +24°C° 0 mm 0 mps 753 mmHg 80%

20 August, Thursday

Time Temperature Precipitation Wind Pressure Humidity
00:00 +26°C° 0 mm 1 mps 753 mmHg 81%
01:00 +26°C° 0 mm 1 mps 753 mmHg 81%
02:00 +25°C° 0 mm 1 mps 752 mmHg 82%
03:00 +25°C° 0 mm 1 mps 752 mmHg 83%
04:00 +25°C° 0 mm 1 mps 753 mmHg 83%
05:00 +25°C° 0 mm 2 mps 753 mmHg 84%
06:00 +27°C° 0 mm 2 mps 753 mmHg 79%
07:00 +28°C° 0 mm 2 mps 753 mmHg 75%
08:00 +29°C° 0 mm 3 mps 753 mmHg 70%
09:00 +30°C° 0 mm 3 mps 753 mmHg 65%
10:00 +33°C° 0 mm 4 mps 753 mmHg 59%
11:00 +34°C° 0 mm 4 mps 753 mmHg 54%
12:00 +34°C° 0 mm 4 mps 753 mmHg 54%
13:00 +34°C° 0 mm 4 mps 753 mmHg 53%
14:00 +34°C° 0 mm 5 mps 752 mmHg 53%
15:00 +33°C° 0 mm 4 mps 752 mmHg 55%
16:00 +33°C° 0 mm 4 mps 752 mmHg 58%
17:00 +32°C° 0 mm 4 mps 752 mmHg 60%
18:00 +30°C° 0 mm 3 mps 752 mmHg 66%
19:00 +28°C° 0 mm 2 mps 753 mmHg 73%
20:00 +27°C° 0 mm 1 mps 753 mmHg 79%
21:00 +27°C° 0 mm 1 mps 753 mmHg 79%
22:00 +26°C° 0 mm 1 mps 753 mmHg 79%
23:00 +24°C° 0 mm 0 mps 753 mmHg 79%
Show more